Durant, OK

10:05 AM CDT on May 28, 2017 (GMT -0500)
Eaker

Weather History for KDUA - January, 2014

Change the Weather History Date:

Sunday, January 5, 2014

  Actual Average (KMLC) Record (KMLC)
Temperature  
Mean Temperature 32 °F -  
Max Temperature 46 °F 46 °F 72 °F (1989)
Min Temperature 17 °F 27 °F 2 °F (1959)
Degree Days  
Heating Degree Days 32    
Moisture  
Dew Point 20 °F    
Average Humidity 66    
Maximum Humidity 87    
Minimum Humidity 49    
Precipitation  
Precipitation 0.00 in - - ()
Sea Level Pressure  
Sea Level Pressure 30.18 in    
Wind  
Wind Speed 17 mph (NNW)    
Max Wind Speed 24 mph    
Max Gust Speed 32 mph    
Visibility 10 miles    
Events      
Averages and records for this station are not official NWS values.
T = Trace of Precipitation, MM = Missing Value Source: NWS Daily Summary

Daily Weather History Graph

Daily Weather History Graph

Search for Another Location

Airport or City:

Trip Planner

Search our weather history database for the weather conditions in past years. The results will help you decide how hot, cold, wet, or windy it might be!

Date:

Astronomy

Jan. 05, 2014 Rise Set
Actual Time 7:31 AM CST 5:30 PM CST
Civil Twilight 7:03 AM CST 5:58 PM CST
Nautical Twilight 6:32 AM CST 6:29 PM CST
Astronomical Twilight 6:02 AM CST 6:59 PM CST
Moon 10:28 AM CST (1/5) 10:43 PM CST (1/5)
Length of Visible Light 10h 54m
Length of Day
9h 59m
Waxing Crescent, 25% of the Moon is Illuminated
Jan 5
Waxing Crescent
Jan 7
First Quarter
Jan 15
Full
Jan 23
Last Quarter
Jan 30
New

Hourly Weather History & Observations

Time (CST) Temp. Windchill Dew Point Humidity Pressure Visibility Wind Dir Wind Speed Gust Speed Precip Events Conditions
12:15 AM 46.4 °F 41.5 °F 35.6 °F 66% 29.79 in 10.0 mi NNW 10.4 mph - N/A   Overcast
12:35 AM 42.8 °F 35.8 °F 35.6 °F 76% 29.79 in 10.0 mi NNW 13.8 mph 18.4 mph N/A   Overcast
12:55 AM 42.8 °F 35.8 °F 33.8 °F 70% 29.80 in 10.0 mi NNW 13.8 mph 18.4 mph N/A   Overcast
1:15 AM 41.0 °F 33.5 °F 33.8 °F 76% 29.80 in 10.0 mi NNW 13.8 mph 19.6 mph N/A   Overcast
1:35 AM 41.0 °F 32.8 °F 33.8 °F 76% 29.80 in 10.0 mi NNW 16.1 mph - N/A   Overcast
1:55 AM 41.0 °F 32.5 °F 33.8 °F 76% 29.81 in 10.0 mi NNW 17.3 mph - N/A   Overcast
2:15 AM 41.0 °F 32.5 °F 32.0 °F 70% 29.82 in 10.0 mi NNW 17.3 mph 24.2 mph N/A   Overcast
2:35 AM 39.2 °F 29.3 °F 32.0 °F 75% 29.84 in 10.0 mi NNW 20.7 mph 27.6 mph N/A   Overcast
2:55 AM 37.4 °F 27.2 °F 30.2 °F 75% 29.85 in 10.0 mi NNW 19.6 mph 25.3 mph N/A   Overcast
3:15 AM 35.6 °F 25.5 °F 28.4 °F 75% 29.87 in 10.0 mi NNW 17.3 mph 31.1 mph N/A   Overcast
3:35 AM 33.8 °F 21.9 °F 28.4 °F 81% 29.89 in 10.0 mi NNW 21.9 mph 26.5 mph N/A   Overcast
3:55 AM 32.0 °F 19.8 °F 28.4 °F 87% 29.91 in 10.0 mi NNW 20.7 mph 27.6 mph N/A   Overcast
4:15 AM 32.0 °F 20.5 °F 28.4 °F 87% 29.91 in 10.0 mi NNW 18.4 mph 28.8 mph N/A   Overcast
4:35 AM 32.0 °F 19.8 °F 28.4 °F 87% 29.92 in 10.0 mi NNW 20.7 mph 26.5 mph N/A   Overcast
4:55 AM 32.0 °F 21.6 °F 28.4 °F 87% 29.94 in 10.0 mi NNW 15.0 mph 23.0 mph N/A   Overcast
5:15 AM 32.0 °F 20.1 °F 28.4 °F 87% 29.94 in 10.0 mi NW 19.6 mph 23.0 mph N/A   Overcast
5:35 AM 30.2 °F 16.5 °F 26.6 °F 86% 29.95 in 10.0 mi NNW 24.2 mph 28.8 mph N/A   Overcast
5:55 AM 30.2 °F 16.8 °F 26.6 °F 86% 29.96 in 10.0 mi NNW 23.0 mph 28.8 mph N/A   Overcast
6:15 AM 30.2 °F 18.1 °F 24.8 °F 80% 29.99 in 10.0 mi NNW 18.4 mph 24.2 mph N/A   Overcast
6:35 AM 28.4 °F 15.1 °F 23.0 °F 80% 30.01 in 10.0 mi NW 20.7 mph 28.8 mph N/A   Overcast
6:55 AM 28.4 °F 15.4 °F 23.0 °F 80% 30.02 in 10.0 mi NNW 19.6 mph 27.6 mph N/A   Overcast
7:15 AM 28.4 °F 14.7 °F 21.2 °F 74% 30.03 in 10.0 mi NW 21.9 mph 27.6 mph N/A   Overcast
7:35 AM 28.4 °F 14.4 °F 21.2 °F 74% 30.05 in 10.0 mi NNW 23.0 mph 32.2 mph N/A   Overcast
7:55 AM 28.4 °F 17.0 °F 21.2 °F 74% 30.07 in 10.0 mi NNW 15.0 mph 25.3 mph N/A   Overcast
8:15 AM 28.4 °F 14.1 °F 21.2 °F 74% 30.08 in 10.0 mi NW 24.2 mph - N/A   Overcast
8:35 AM 26.6 °F 14.3 °F 19.4 °F 74% 30.10 in 10.0 mi NNW 16.1 mph 27.6 mph N/A   Overcast
8:55 AM 26.6 °F 13.8 °F 17.6 °F 69% 30.11 in 10.0 mi NNW 17.3 mph 26.5 mph N/A   Overcast
9:15 AM 28.4 °F 15.1 °F 17.6 °F 64% 30.12 in 10.0 mi NNW 20.7 mph 26.5 mph N/A   Overcast
9:35 AM 28.4 °F 16.2 °F 17.6 °F 64% 30.15 in 10.0 mi NNW 17.3 mph 28.8 mph N/A   Overcast
9:55 AM 28.4 °F 15.4 °F 17.6 °F 64% 30.16 in 10.0 mi NNW 19.6 mph 25.3 mph N/A   Overcast
10:15 AM 28.4 °F 14.4 °F 17.6 °F 64% 30.17 in 10.0 mi NNW 23.0 mph 27.6 mph N/A   Overcast
10:35 AM 28.4 °F 15.4 °F 17.6 °F 64% 30.18 in 10.0 mi NNW 19.6 mph 25.3 mph N/A   Overcast
10:55 AM 28.4 °F 16.2 °F 19.4 °F 69% 30.18 in 10.0 mi NNW 17.3 mph 25.3 mph N/A   Overcast
11:15 AM 30.2 °F 17.8 °F 19.4 °F 64% 30.18 in 10.0 mi NNW 19.6 mph 27.6 mph N/A   Overcast
11:35 AM 30.2 °F 17.4 °F 19.4 °F 64% 30.18 in 10.0 mi NNW 20.7 mph - N/A   Overcast
11:55 AM 30.2 °F 17.4 °F 19.4 °F 64% 30.19 in 10.0 mi NW 20.7 mph 26.5 mph N/A   Overcast
12:15 PM 32.0 °F 20.5 °F 19.4 °F 60% 30.18 in 10.0 mi NNW 18.4 mph 25.3 mph N/A   Mostly Cloudy
12:35 PM 32.0 °F 20.5 °F 19.4 °F 60% 30.18 in 10.0 mi NNW 18.4 mph 25.3 mph N/A   Scattered Clouds
12:55 PM 32.0 °F 20.1 °F 19.4 °F 60% 30.18 in 10.0 mi NNW 19.6 mph 25.3 mph N/A   Scattered Clouds
1:15 PM 33.8 °F 22.8 °F 17.6 °F 52% 30.18 in 10.0 mi NNW 18.4 mph 26.5 mph N/A   Clear
1:35 PM 33.8 °F 22.2 °F 17.6 °F 52% 30.18 in 10.0 mi NNW 20.7 mph 28.8 mph N/A   Clear
1:55 PM 33.8 °F 21.6 °F 19.4 °F 56% 30.19 in 10.0 mi NNW 23.0 mph 28.8 mph N/A   Clear
2:15 PM 33.8 °F 22.8 °F 19.4 °F 56% 30.20 in 10.0 mi NNW 18.4 mph 26.5 mph N/A   Clear
2:35 PM 33.8 °F 22.8 °F 19.4 °F 56% 30.21 in 10.0 mi NNW 18.4 mph 28.8 mph N/A   Clear
2:55 PM 33.8 °F 21.9 °F 19.4 °F 56% 30.22 in 10.0 mi NNW 21.9 mph 27.6 mph N/A   Clear
3:15 PM 33.8 °F 23.5 °F 19.4 °F 56% 30.25 in 10.0 mi NNW 16.1 mph 24.2 mph N/A   Scattered Clouds
3:35 PM 33.8 °F 22.8 °F 19.4 °F 56% 30.26 in 10.0 mi NNW 18.4 mph 24.2 mph N/A   Scattered Clouds
3:55 PM 32.0 °F 20.5 °F 19.4 °F 60% 30.27 in 10.0 mi North 18.4 mph 23.0 mph N/A   Scattered Clouds
4:15 PM 32.0 °F 21.2 °F 17.6 °F 55% 30.28 in 10.0 mi North 16.1 mph 25.3 mph N/A   Clear
4:35 PM 32.0 °F 20.5 °F 17.6 °F 55% 30.30 in 10.0 mi NNW 18.4 mph 25.3 mph N/A   Clear
4:55 PM 32.0 °F 21.2 °F 17.6 °F 55% 30.32 in 10.0 mi NNW 16.1 mph 25.3 mph N/A   Clear
5:15 PM 30.2 °F 19.3 °F 17.6 °F 60% 30.33 in 10.0 mi NNW 15.0 mph 25.3 mph N/A   Clear
5:35 PM 28.4 °F 16.2 °F 17.6 °F 64% 30.34 in 10.0 mi North 17.3 mph - N/A   Clear
5:55 PM 26.6 °F 15.2 °F 15.8 °F 64% 30.36 in 10.0 mi NNW 13.8 mph 24.2 mph N/A   Clear
6:15 PM 26.6 °F 14.3 °F 15.8 °F 64% 30.38 in 10.0 mi WNW 16.1 mph 25.3 mph N/A   Clear
6:35 PM 24.8 °F 14.0 °F 15.8 °F 69% 30.40 in 10.0 mi NNW 11.5 mph - N/A   Clear
6:55 PM 24.8 °F 14.6 °F 15.8 °F 69% 30.41 in 10.0 mi North 10.4 mph - N/A   Clear
7:15 PM 24.8 °F 14.0 °F 14.0 °F 64% 30.42 in 10.0 mi North 11.5 mph 20.7 mph N/A   Clear
7:35 PM 24.8 °F 11.1 °F 12.2 °F 59% 30.44 in 10.0 mi NNW 18.4 mph 26.5 mph N/A   Clear
7:55 PM 23.0 °F 8.3 °F 12.2 °F 63% 30.45 in 10.0 mi NNW 19.6 mph 23.0 mph N/A   Clear
8:15 PM 23.0 °F 7.6 °F 10.4 °F 59% 30.46 in 10.0 mi NNW 21.9 mph 29.9 mph N/A   Clear
8:35 PM 23.0 °F 10.1 °F 10.4 °F 59% 30.48 in 10.0 mi NNW 15.0 mph - N/A   Clear
8:55 PM 23.0 °F 8.7 °F 8.6 °F 54% 30.49 in 10.0 mi NNW 18.4 mph 28.8 mph N/A   Clear
9:15 PM 21.2 °F 8.3 °F 8.6 °F 58% 30.50 in 10.0 mi NNW 13.8 mph 26.5 mph N/A   Clear
9:35 PM 21.2 °F 7.8 °F 8.6 °F 58% 30.51 in 10.0 mi NNW 15.0 mph 25.3 mph N/A   Clear
9:55 PM 21.2 °F 7.8 °F 8.6 °F 58% 30.52 in 10.0 mi NNW 15.0 mph - N/A   Clear
10:15 PM 21.2 °F 6.4 °F 6.8 °F 54% 30.52 in 10.0 mi North 18.4 mph 25.3 mph N/A   Clear
10:35 PM 19.4 °F 6.0 °F 5.0 °F 54% 30.53 in 10.0 mi North 13.8 mph 23.0 mph N/A   Clear
10:55 PM 19.4 °F 5.0 °F 5.0 °F 54% 30.54 in 10.0 mi North 16.1 mph 20.7 mph N/A   Clear
11:15 PM 19.4 °F 4.5 °F 5.0 °F 54% 30.55 in 10.0 mi NW 17.3 mph 21.9 mph N/A   Clear
11:35 PM 19.4 °F 6.6 °F 3.2 °F 49% 30.57 in 10.0 mi NNW 12.7 mph 18.4 mph N/A   Clear
11:55 PM 17.6 °F 2.7 °F 5.0 °F 58% 30.58 in 10.0 mi NNW 16.1 mph - N/A   Clear